x

Southeast Of Ponce, Pr (42085) Weather Station

6:50am - Sat 18th Apr 2015 All times are AST. -4 hours from GMT.

  • Wind
    13mph, 18mph gusts
  • Air Temp 78°f
  • Sea Pressure 1016.3mb
  • Southeast Of Ponce, Pr
  • Southeast Of Ponce, Pr

More Historic Weather Station data

Upgrade to MSW Pro to gain access to the past 30 days of data for over 8000 Wavebouys and Weather Stations around the globe.

Join Pro

Comparision Forecast

View Surf forecast
   
Sat 04/18 6:50am  -   -  13 18 mph 1016.3mb - 78f
6:40am  -   -  11 16 mph 1016.1mb - 78f
6:30am  -   -  11 13 mph 1016mb - 78f
6:20am  -   -  13 16 mph 1015.9mb - 78f
6:10am  -   -  13 16 mph 1015.8mb - 78f
6:00am 3.5ft 6s 13 18 mph 1015.7mb 80f 78f
5:50am  -   -  16 20 mph 1015.5mb - 78f
5:40am  -   -  16 18 mph 1015.4mb - 78f
5:30am  -   -  16 18 mph 1015.4mb - 78f
5:20am  -   -  16 20 mph 1015.2mb - 78f
5:10am  -   -  16 18 mph 1015.1mb - 79f
5:00am 3.5ft 6s 16 18 mph 1015.1mb 80f 78f
4:50am  -   -  13 18 mph 1015.1mb - 78f
4:40am  -   -  16 20 mph 1015mb - 79f
4:30am  -   -  16 20 mph 1014.9mb - 79f
4:20am  -   -  13 18 mph 1014.9mb - 78f
4:10am  -   -  13 18 mph 1014.9mb - 79f
4:00am 3.5ft 7s 13 18 mph 1014.9mb 80f 79f
3:50am  -   -  13 16 mph 1014.9mb - 79f
3:40am  -   -  13 18 mph 1014.9mb - 79f
3:30am  -   -  13 16 mph 1014.9mb - 78f
3:20am  -   -  13 16 mph 1014.9mb - 78f
3:10am  -   -  13 16 mph 1014.9mb - 78f
3:00am 3.5ft 6s 13 16 mph 1014.9mb 80f 78f
2:50am  -   -  13 16 mph 1015mb - 78f
2:40am  -   -  13 16 mph 1015.1mb - 78f
2:30am  -   -  13 16 mph 1015.3mb - 79f
2:20am  -   -  13 16 mph 1015.4mb - 78f
2:10am  -   -  13 16 mph 1015.5mb - 79f
2:00am 3.5ft 7s 13 18 mph 1015.5mb 80f 79f
1:50am  -   -  16 18 mph 1015.7mb - 79f
1:40am  -   -  16 18 mph 1015.8mb - 79f
1:30am  -   -  16 18 mph 1015.9mb - 79f
1:20am  -   -  13 18 mph 1015.9mb - 79f
1:10am  -   -  13 18 mph 1016mb - 79f
1:00am 3.5ft 7s 11 16 mph 1016.2mb 80f 79f
12:50am  -   -  11 13 mph 1016.4mb - 79f
12:40am  -   -  13 16 mph 1016.4mb - 79f
12:30am  -   -  11 16 mph 1016.5mb - 78f
12:20am  -   -  13 18 mph 1016.5mb - 78f
12:10am  -   -  13 18 mph 1016.6mb - 79f
12:00am 3.5ft 5s 13 20 mph 1016.6mb 80f 79f
Fri 04/17 11:50pm  -   -  18 22 mph 1016.6mb - 79f
11:40pm  -   -  16 20 mph 1016.7mb - 80f
11:30pm  -   -  18 20 mph 1016.8mb - 80f
11:20pm  -   -  16 18 mph 1016.9mb - 80f
11:10pm  -   -  16 20 mph 1016.9mb - 80f
11:00pm 3.5ft 7s 13 16 mph 1016.9mb 80f 79f
10:50pm  -   -  13 16 mph 1016.9mb - 79f
10:40pm  -   -  13 18 mph 1016.9mb - 79f
10:30pm  -   -  16 18 mph 1016.8mb - 79f
10:20pm  -   -  13 18 mph 1016.7mb - 79f
10:10pm  -   -  16 18 mph 1016.7mb - 79f
10:00pm 3.5ft 5s 16 20 mph 1016.6mb 80f 80f
9:50pm  -   -  13 18 mph 1016.5mb - 79f
9:40pm  -   -  13 18 mph 1016.4mb - 80f
9:30pm  -   -  16 18 mph 1016.3mb - 79f
9:20pm  -   -  16 20 mph 1016.1mb - 79f
9:10pm  -   -  18 20 mph 1015.9mb - 80f
9:00pm 4.5ft 6s 18 22 mph 1015.8mb 80f 79f
8:50pm  -   -  18 22 mph 1015.7mb - 79f
8:40pm  -   -  18 22 mph 1015.5mb - 79f
8:30pm  -   -  18 22 mph 1015.5mb - 79f
8:20pm  -   -  18 22 mph 1015.4mb - 79f
8:10pm  -   -  18 22 mph 1015.2mb - 79f
8:00pm 4ft 6s 18 22 mph 1015.2mb 80f 79f
7:50pm  -   -  18 22 mph 1015.1mb - 79f
7:40pm  -   -  18 22 mph 1015.1mb - 79f
7:30pm  -   -  18 20 mph 1014.9mb - 79f
7:20pm  -   -  18 20 mph 1014.9mb - 79f
7:10pm  -   -  18 20 mph 1014.8mb - 79f
7:00pm 4.5ft 6s 18 22 mph 1014.8mb 80f 79f
6:50pm  -   -  18 22 mph 1014.7mb - 79f
6:40pm  -   -  18 22 mph 1014.6mb - 79f
6:30pm  -   -  18 22 mph 1014.5mb - 80f
6:20pm  -   -  18 22 mph 1014.5mb - 79f
6:10pm  -   -  20 22 mph 1014.5mb - 79f
6:00pm 4.5ft 6s 18 22 mph 1014.4mb 80f 79f
5:50pm  -   -  18 22 mph 1014.2mb - 79f
5:40pm  -   -  20 22 mph 1014.2mb - 80f
5:30pm  -   -  20 22 mph 1014.1mb - 80f
5:20pm  -   -  20 22 mph 1014.1mb - 80f
5:00pm 4.5ft 6s 20 22 mph 1014.1mb 80f 80f
4:30pm  -   -  18 22 mph 1014.1mb - 80f
4:20pm  -   -  18 22 mph 1014.1mb - 80f
4:10pm  -   -  18 22 mph 1014.1mb - 80f
4:00pm 4.5ft 5s 18 22 mph 1014.1mb 80f 80f
3:50pm  -   -  20 25 mph 1014.2mb - 80f
3:40pm  -   -  20 25 mph 1014.3mb - 80f
3:30pm  -   -  20 25 mph 1014.2mb - 80f
3:20pm  -   -  20 25 mph 1014.3mb - 80f
3:10pm  -   -  20 22 mph 1014.3mb - 80f
3:00pm 4.5ft 6s 20 25 mph 1014.3mb 80f 79f
2:50pm  -   -  20 25 mph 1014.3mb - 80f
2:40pm  -   -  20 22 mph 1014.5mb - 80f
2:30pm  -   -  20 25 mph 1014.8mb - 80f
2:20pm  -   -  20 25 mph 1014.8mb - 79f
2:10pm  -   -  20 25 mph 1014.8mb - 79f
2:00pm 4ft 4s 20 25 mph 1014.8mb 80f 79f
1:50pm  -   -  20 27 mph 1015mb - 80f
1:40pm  -   -  20 25 mph 1015.1mb - 80f
1:30pm  -   -  20 25 mph 1015.3mb - 80f
1:20pm  -   -  20 22 mph 1015.4mb - 79f
1:10pm  -   -  20 25 mph 1015.5mb - 80f
1:00pm 4.5ft 6s 20 25 mph 1015.7mb 80f 80f
12:50pm  -   -  18 22 mph 1015.7mb - 80f
12:40pm  -   -  20 25 mph 1015.8mb - 80f
12:30pm  -   -  18 22 mph 1015.9mb - 80f
12:20pm  -   -  20 22 mph 1016mb - 80f
12:00pm 4.5ft 6s 20 25 mph 1016.3mb 80f 79f
11:30am  -   -  20 25 mph 1016.7mb - 79f
11:20am  -   -  18 25 mph 1016.9mb - 80f
11:10am  -   -  20 22 mph 1017mb - 80f
11:00am 4ft 6s 18 22 mph 1017.2mb 80f 80f
10:50am  -   -  18 20 mph 1017.3mb - 80f
10:40am  -   -  16 20 mph 1017.3mb - 80f
10:30am  -   -  18 20 mph 1017.2mb - 80f
10:20am  -   -  18 20 mph 1017.2mb - 80f
10:00am 3.5ft 6s 18 20 mph 1017.2mb 80f 79f
9:30am  -   -  16 20 mph 1017.1mb - 79f
9:20am  -   -  16 18 mph 1017.1mb - 80f
9:10am  -   -  16 20 mph 1017.1mb - 80f
9:00am 3.5ft 6s 16 20 mph 1017mb 80f 79f
8:50am  -   -  13 16 mph 1017mb - 79f
8:40am  -   -  11 16 mph 1016.9mb - 79f
8:30am  -   -  9 13 mph 1016.8mb - 79f
8:20am  -   -  9 11 mph 1016.7mb - 79f
8:10am  -   -  9 11 mph 1016.7mb - 79f
8:00am 3.5ft 6s 9 11 mph 1016.6mb 80f 79f
7:50am  -   -  9 11 mph 1016.5mb - 79f
7:40am  -   -  7 9 mph 1016.4mb - 78f
7:30am  -   -  9
mph
1016.4mb - 78f
7:20am  -   -  9
mph
1016.2mb - 78f
7:10am  -   -  9
mph
1016.1mb - 78f
7:00am 3.5ft 5s 9 11 mph 1016mb 80f 78f
6:50am  -   -  9 11 mph 1015.9mb - 78f
6:40am  -   -  9 11 mph 1015.7mb - 78f
6:30am  -   -  9 13 mph 1015.7mb - 78f
6:20am  -   -  11
mph
1015.6mb - 78f
6:10am  -   -  9 11 mph 1015.4mb - 78f
6:00am 3ft 6s 11
mph
1015.3mb 80f 78f
5:00am 3.5ft 6s 11
mph
1015.1mb 80f 77f
4:50am  -   -  9 11 mph 1015.1mb - 78f
4:40am  -   -  9 11 mph 1015.1mb - 78f
4:30am  -   -  9 11 mph 1015.1mb - 78f
4:20am  -   -  9 11 mph 1015mb - 78f
4:10am  -   -  11
mph
1014.9mb - 78f
4:00am 3ft 6s 9 11 mph 1014.9mb 80f 77f
3:50am  -   -  9 11 mph 1015mb - 78f
3:40am  -   -  9 11 mph 1015mb - 78f
3:30am  -   -  9 13 mph 1015.1mb - 78f
3:20am  -   -  9 13 mph 1015.2mb - 78f
3:10am  -   -  9 11 mph 1015.2mb - 78f
3:00am 3.5ft 6s 11
mph
1015.2mb 80f 78f
2:50am  -   -  11
mph
1015.3mb - 78f
2:40am  -   -  11 13 mph 1015.4mb - 78f
2:30am  -   -  11 13 mph 1015.5mb - 78f
2:20am  -   -  11 13 mph 1015.6mb - 78f
2:10am  -   -  11 13 mph 1015.7mb - 78f
2:00am 3.5ft 5s 11
mph
1015.8mb 80f 78f
1:50am  -   -  11
mph
1015.9mb - 78f
1:40am  -   -  11 13 mph 1016.1mb - 78f
1:30am  -   -  11 13 mph 1016.2mb - 78f
1:20am  -   -  11
mph
1016.3mb - 78f
1:10am  -   -  9 13 mph 1016.4mb - 78f
1:00am 3.5ft 6s 11 13 mph 1016.6mb 80f 78f
12:50am  -   -  11
mph
1016.7mb - 78f
12:40am  -   -  9 13 mph 1016.8mb - 78f
12:30am  -   -  11 13 mph 1016.9mb - 79f
12:20am  -   -  11 13 mph 1016.9mb - 79f
12:10am  -   -  11 13 mph 1016.9mb - 79f
12:00am 3.5ft 6s 11 13 mph 1016.9mb 80f 79f
Thu 04/16 11:50pm  -   -  11 13 mph 1016.9mb - 79f
11:40pm  -   -  11 16 mph 1017mb - 79f
11:30pm  -   -  11 13 mph 1016.9mb - 79f
11:20pm  -   -  11 16 mph 1016.9mb - 79f
11:10pm  -   -  13 16 mph 1017mb - 79f
11:00pm 3.5ft 6s 13 16 mph 1017mb 80f 80f
10:50pm  -   -  13 18 mph 1017mb - 80f
10:40pm  -   -  13 16 mph 1017mb - 80f
10:30pm  -   -  13 16 mph 1017mb - 80f
10:20pm  -   -  13 18 mph 1016.9mb - 80f
10:10pm  -   -  16 18 mph 1016.9mb - 80f
10:00pm 3.5ft 6s 16 18 mph 1016.8mb 80f 80f
9:50pm  -   -  13 16 mph 1016.7mb - 80f
9:40pm  -   -  13 16 mph 1016.6mb - 80f
9:30pm  -   -  16 18 mph 1016.5mb - 80f
9:20pm  -   -  16 18 mph 1016.3mb - 80f
9:10pm  -   -  16 18 mph 1016.2mb - 80f
9:00pm 3.5ft 6s 16 18 mph 1016mb 80f 80f
8:50pm  -   -  16 18 mph 1016mb - 80f
8:40pm  -   -  16 18 mph 1015.9mb - 80f
8:30pm  -   -  16 18 mph 1015.7mb - 80f
8:20pm  -   -  18 20 mph 1015.6mb - 80f
8:10pm  -   -  18 20 mph 1015.5mb - 80f
8:00pm 4.5ft 5s 18 20 mph 1015.2mb 80f 80f
7:50pm  -   -  18 22 mph 1015mb - 80f
7:40pm  -   -  18 25 mph 1014.8mb - 80f
7:30pm  -   -  20 25 mph 1014.8mb - 80f
7:20pm  -   -  20 25 mph 1014.6mb - 80f
7:10pm  -   -  22 27 mph 1014.6mb - 80f
7:00pm 4.5ft 5s 22 25 mph 1014.5mb 80f 80f
6:50pm  -   -  20 25 mph 1014.3mb - 80f
6:40pm  -   -  22 25 mph 1014.2mb - 80f
6:30pm  -   -  20 25 mph 1014.1mb - 80f
6:20pm  -   -  20 25 mph 1014.2mb - 80f
6:10pm  -   -  20 25 mph 1014mb - 80f
6:00pm 4.5ft 6s 20 25 mph 1013.9mb 80f 80f
5:50pm  -   -  20 25 mph 1013.9mb - 80f
5:40pm  -   -  20 25 mph 1013.7mb - 80f
5:30pm  -   -  20 25 mph 1013.7mb - 80f
5:20pm  -   -  20 25 mph 1013.7mb - 80f
5:10pm  -   -  18 22 mph 1013.8mb - 80f
5:00pm 4.5ft 5s 18 22 mph 1013.8mb 80f 80f
4:30pm  -   -  20 25 mph 1013.9mb - 80f
4:20pm  -   -  20 22 mph 1013.9mb - 80f
4:10pm  -   -  20 22 mph 1013.9mb - 80f
4:00pm 4.5ft 6s 20 25 mph 1013.9mb 80f 80f
3:50pm  -   -  20 27 mph 1014mb - 80f
3:40pm  -   -  20 27 mph 1014.1mb - 80f
3:30pm  -   -  20 25 mph 1014.2mb - 80f
3:20pm  -   -  20 25 mph 1014.3mb - 80f
3:00pm 4.5ft 6s 18 22 mph 1014.5mb 80f 80f
2:30pm  -   -  18 22 mph 1014.9mb - 80f
2:20pm  -   -  18 20 mph 1014.9mb - 80f
2:10pm  -   -  18 22 mph 1015.2mb - 80f
2:00pm 4ft 6s 18 22 mph 1015.4mb 80f 80f
1:50pm  -   -  18 22 mph 1015.5mb - 80f
1:40pm  -   -  18 20 mph 1015.7mb - 80f
1:30pm  -   -  18 20 mph 1015.9mb - 80f
1:20pm  -   -  18 20 mph 1016.1mb - 80f
1:10pm  -   -  18 22 mph 1016.3mb - 80f
1:00pm 4ft 6s 18 20 mph 1016.4mb 80f 80f
12:50pm  -   -  20 25 mph 1016.6mb - 80f
12:30pm  -   -  18 22 mph 1016.7mb - 80f
12:20pm  -   -  18 20 mph 1016.9mb - 80f
12:10pm  -   -  18 20 mph 1017mb - 80f
12:00pm 3.5ft 6s 18 20 mph 1017.2mb 80f 80f
11:50am  -   -  16 20 mph 1017.3mb - 80f
11:40am  -   -  16 20 mph 1017.3mb - 80f
11:30am  -   -  16 20 mph 1017.3mb - 80f
11:20am  -   -  16 20 mph 1017.5mb - 80f
11:10am  -   -  18 20 mph 1017.6mb - 80f
11:00am 3.5ft 6s 16 20 mph 1017.6mb 80f 80f
10:50am  -   -  16 20 mph 1017.8mb - 80f
10:40am  -   -  18 20 mph 1017.9mb - 80f
10:30am  -   -  18 20 mph 1017.8mb - 80f
10:20am  -   -  16 20 mph 1017.8mb - 80f
10:10am  -   -  16 20 mph 1017.9mb - 80f
10:00am 3.5ft 6s 18 20 mph 1017.9mb 80f 80f
9:50am  -   -  16 18 mph 1017.9mb - 80f
9:40am  -   -  16 18 mph 1017.9mb - 80f
9:30am  -   -  16 20 mph 1017.9mb - 80f
9:20am  -   -  11 16 mph 1017.9mb - 79f
9:10am  -   -  11 13 mph 1017.9mb - 79f
9:00am 3ft 6s 11 13 mph 1017.8mb 80f 79f
8:50am  -   -  13 16 mph 1017.8mb - 79f
8:40am  -   -  13 16 mph 1017.8mb - 79f
8:30am  -   -  13 18 mph 1017.6mb - 78f
8:20am  -   -  13 16 mph 1017.6mb - 78f
8:10am  -   -  13 16 mph 1017.5mb - 78f
8:00am 3ft 6s 13 16 mph 1017.3mb 80f 77f
7:30am  -   -  13 16 mph 1016.9mb - 77f
7:20am  -   -  13 16 mph 1016.7mb - 77f
7:10am  -   -  13 16 mph 1016.6mb - 77f
7:00am 3.5ft 6s 13 16 mph 1016.6mb 80f 77f
6:50am  -   -  16 18 mph 1016.5mb - 77f
6:40am  -   -  13 16 mph 1016.4mb - 77f
6:30am  -   -  13 16 mph 1016.4mb - 77f
6:20am  -   -  13 16 mph 1016.3mb - 76f
6:10am  -   -  11 13 mph 1016.3mb - 77f
6:00am 3ft 6s 11 13 mph 1016.2mb 80f 77f
5:50am  -   -  11 13 mph 1016.2mb - 77f
5:40am  -   -  11 13 mph 1016.2mb - 77f
5:30am  -   -  11 13 mph 1016.2mb - 77f
5:20am  -   -  11 13 mph 1016.1mb - 77f
5:10am  -   -  11 13 mph 1016.1mb - 77f
5:00am 3.5ft 6s 11 13 mph 1016mb 80f 77f
4:50am  -   -  11 13 mph 1016mb - 77f
4:40am  -   -  11 13 mph 1016mb - 77f
4:30am  -   -  11 13 mph 1015.9mb - 77f
4:20am  -   -  11 13 mph 1015.7mb - 77f
4:10am  -   -  11 16 mph 1015.7mb - 77f
4:00am 3.5ft 5s 11 13 mph 1015.6mb 80f 77f
3:50am  -   -  11 13 mph 1015.5mb - 77f
3:40am  -   -  11 16 mph 1015.6mb - 77f
3:30am  -   -  11 16 mph 1015.6mb - 77f
3:20am  -   -  11 16 mph 1015.6mb - 77f
3:10am  -   -  11 13 mph 1015.6mb - 77f
3:00am 3ft 6s 11 13 mph 1015.7mb 80f 77f
2:50am  -   -  11 13 mph 1015.8mb - 77f
2:40am  -   -  11 13 mph 1015.8mb - 77f
2:30am  -   -  11 13 mph 1015.8mb - 77f
2:20am  -   -  11 13 mph 1015.9mb - 77f
2:10am  -   -  11 13 mph 1016mb - 77f
2:00am 3.5ft 6s 11 13 mph 1016.1mb 80f 78f
1:50am  -   -  11 13 mph 1016.1mb - 78f
1:40am  -   -  11 13 mph 1016.3mb - 78f
1:30am  -   -  11 13 mph 1016.3mb - 78f
1:20am  -   -  11 13 mph 1016.4mb - 78f
1:10am  -   -  11 13 mph 1016.5mb - 78f
1:00am 3.5ft 6s 11 13 mph 1016.7mb 80f 78f
12:50am  -   -  11 16 mph 1016.7mb - 78f
12:40am  -   -  11 13 mph 1016.9mb - 78f
12:30am  -   -  11 13 mph 1016.9mb - 78f
12:20am  -   -  9 11 mph 1017mb - 78f
12:10am  -   -  11 13 mph 1017.1mb - 78f
12:00am 3.5ft 6s 11 16 mph 1017.2mb 80f 79f
Wed 04/15 11:50pm  -   -  11 16 mph 1017.3mb - 78f
11:40pm  -   -  11 13 mph 1017.3mb - 79f
11:30pm  -   -  13 16 mph 1017.3mb - 78f
11:20pm  -   -  13 16 mph 1017.3mb - 79f
11:10pm  -   -  13 18 mph 1017.3mb - 79f
11:00pm 3.5ft 6s 16 18 mph 1017.3mb 80f 79f
10:50pm  -   -  16 18 mph 1017.3mb - 79f
10:40pm  -   -  16 20 mph 1017.3mb - 79f
10:30pm  -   -  16 20 mph 1017.3mb - 79f
10:20pm  -   -  16 20 mph 1017.3mb - 79f
10:10pm  -   -  16 20 mph 1017.3mb - 79f
10:00pm 3.5ft 6s 18 22 mph 1017.2mb 80f 79f
9:50pm  -   -  18 22 mph 1017.2mb - 79f
9:40pm  -   -  16 20 mph 1017.3mb - 79f
9:30pm  -   -  16 20 mph 1017.2mb - 79f
9:20pm  -   -  18 20 mph 1017mb - 79f
9:10pm  -   -  18 20 mph 1016.9mb - 79f
9:00pm 4ft 5s 18 20 mph 1016.7mb 80f 79f
8:50pm  -   -  18 22 mph 1016.5mb - 80f
8:40pm  -   -  18 22 mph 1016.4mb - 80f
8:30pm  -   -  18 22 mph 1016.3mb - 80f
8:20pm  -   -  18 20 mph 1016.3mb - 80f
8:10pm  -   -  18 20 mph 1016.2mb - 80f
8:00pm 4.5ft 6s 16 20 mph 1016mb 80f 80f
7:50pm  -   -  18 20 mph 1016mb - 80f
7:40pm  -   -  18 22 mph 1015.8mb - 80f
7:30pm  -   -  18 22 mph 1015.7mb - 80f
7:20pm  -   -  18 22 mph 1015.6mb - 80f
7:10pm  -   -  20 25 mph 1015.5mb - 80f
7:00pm 4.5ft 6s 20 25 mph 1015.4mb 80f 79f
6:30pm  -   -  20 25 mph 1014.9mb - 80f
6:20pm  -   -  20 25 mph 1014.8mb - 80f
6:10pm  -   -  20 22 mph 1014.9mb - 80f
6:00pm 4.5ft 6s 20 25 mph 1014.8mb 80f 80f
5:50pm  -   -  20 25 mph 1014.6mb - 80f
5:40pm  -   -  20 25 mph 1014.5mb - 80f
5:30pm  -   -  20 25 mph 1014.3mb - 80f
5:20pm  -   -  22 27 mph 1014.3mb - 80f
5:10pm  -   -  22 27 mph 1014.2mb - 80f
5:00pm 5ft 6s 22 27 mph 1014.2mb 80f 80f
4:50pm  -   -  22 27 mph 1014.2mb - 80f
4:40pm  -   -  20 25 mph 1014.2mb - 80f
4:30pm  -   -  22 27 mph 1014.2mb - 80f
4:20pm  -   -  22 27 mph 1014.3mb - 80f
4:00pm 4.5ft 5s 22 27 mph 1014.4mb 80f 80f
3:30pm  -   -  22 27 mph 1014.6mb - 80f
3:20pm  -   -  22 29 mph 1014.6mb - 80f
3:10pm  -   -  22 27 mph 1014.8mb - 80f
3:00pm 4.5ft 6s 20 25 mph 1014.9mb 80f 80f
2:50pm  -   -  20 27 mph 1015mb - 80f
2:40pm  -   -  22 27 mph 1015mb - 80f
2:30pm  -   -  20 25 mph 1015.1mb - 80f
2:20pm  -   -  22 27 mph 1015.2mb - 80f
2:10pm  -   -  22 27 mph 1015.4mb - 80f
2:00pm 4.5ft 6s 22 27 mph 1015.5mb 80f 80f
1:50pm  -   -  20 25 mph 1015.6mb - 80f
1:40pm  -   -  22 25 mph 1015.8mb - 80f
1:30pm  -   -  20 27 mph 1015.9mb - 80f
1:20pm  -   -  22 25 mph 1016mb - 80f
1:10pm  -   -  20 27 mph 1016.2mb - 80f
1:00pm 4.5ft 6s 20 27 mph 1016.3mb 80f 80f
12:50pm  -   -  20 25 mph 1016.4mb - 80f
12:40pm  -   -  20 27 mph 1016.6mb - 80f
12:30pm  -   -  20 27 mph 1016.7mb - 80f
12:20pm  -   -  20 25 mph 1017mb - 80f
12:10pm  -   -  20 25 mph 1017.2mb - 80f
12:00pm 4.5ft 6s 20 25 mph 1017.2mb 80f 80f
11:50am  -   -  20 25 mph 1017.3mb - 80f
11:40am  -   -  20 22 mph 1017.5mb - 80f
11:30am  -   -  20 22 mph 1017.6mb - 80f
11:20am  -   -  18 22 mph 1017.7mb - 80f
11:10am  -   -  18 22 mph 1017.8mb - 80f
11:00am 4ft 6s 20 22 mph 1017.8mb 80f 80f
10:50am  -   -  18 22 mph 1017.8mb - 80f
10:40am  -   -  18 22 mph 1017.9mb - 80f
10:30am  -   -  20 25 mph 1017.9mb - 80f
10:20am  -   -  18 22 mph 1017.9mb - 80f
10:10am  -   -  18 22 mph 1017.9mb - 80f
10:00am 4ft 6s 20 25 mph 1017.8mb 80f 80f
9:50am  -   -  20 25 mph 1017.8mb - 79f
9:40am  -   -  18 22 mph 1017.9mb - 79f
9:30am  -   -  16 20 mph 1017.8mb - 79f
9:20am  -   -  18 20 mph 1017.8mb - 79f
9:00am 3.5ft 5s 18 20 mph 1017.6mb 80f 79f
8:30am  -   -  18 22 mph 1017.3mb - 79f
8:20am  -   -  18 22 mph 1017.3mb - 79f
8:00am 3.5ft 6s 16 20 mph 1017.1mb 80f 79f
7:30am  -   -  16 20 mph 1016.8mb - 79f
7:20am  -   -  16 20 mph 1016.7mb - 78f
7:10am  -   -  16 18 mph 1016.6mb - 78f
7:00am 3.5ft 6s 16 20 mph 1016.4mb 80f 78f
6:50am  -   -  16 20 mph 1016.4mb - 78f
6:40am  -   -  16 18 mph 1016.3mb - 78f
6:30am  -   -  16 18 mph 1016.1mb - 78f
6:20am  -   -  16 18 mph 1016mb - 78f
6:10am  -   -  13 18 mph 1016mb - 78f
6:00am 3.5ft 6s 13 18 mph 1015.9mb 80f 78f
5:50am  -   -  13 18 mph 1015.8mb - 78f
5:40am  -   -  16 18 mph 1015.6mb - 78f
5:30am  -   -  16 18 mph 1015.4mb - 78f
5:20am  -   -  16 20 mph 1015.3mb - 78f
5:10am  -   -  16 20 mph 1015.2mb - 78f
5:00am 3.5ft 6s 16 20 mph 1015.1mb 80f 78f
4:50am  -   -  18 20 mph 1015.1mb - 78f
4:40am  -   -  16 20 mph 1015mb - 78f
4:30am  -   -  16 20 mph 1014.9mb - 78f
4:20am  -   -  18 22 mph 1014.8mb - 78f
4:10am  -   -  18 22 mph 1014.8mb - 78f
4:00am 3.5ft 5s 18 22 mph 1014.8mb 80f 78f
3:50am  -   -  18 22 mph 1014.8mb - 78f
3:40am  -   -  18 22 mph 1014.9mb - 78f
3:30am  -   -  18 20 mph 1015.1mb - 78f
3:20am  -   -  18 22 mph 1015mb - 78f
3:10am  -   -  18 20 mph 1015.1mb - 78f
3:00am 3.5ft 5s 18 20 mph 1015.2mb 80f 78f
2:50am  -   -  16 18 mph 1015.2mb - 78f
2:40am  -   -  16 18 mph 1015.4mb - 78f
2:30am  -   -  16 18 mph 1015.4mb - 78f
2:20am  -   -  16 18 mph 1015.4mb - 78f
2:10am  -   -  13 16 mph 1015.5mb - 78f
2:00am 3ft 5s 11 18 mph 1015.6mb 80f 78f
1:50am  -   -  11 13 mph 1015.7mb - 78f
1:40am  -   -  11 13 mph 1015.8mb - 78f
1:30am  -   -  11 16 mph 1016mb - 78f
1:20am  -   -  11 13 mph 1016.1mb - 78f
1:10am  -   -  11 16 mph 1016.2mb - 79f
1:00am 3ft 6s 11 13 mph 1016.3mb 80f 78f
12:50am  -   -  11 16 mph 1016.4mb - 79f
12:40am  -   -  11 13 mph 1016.6mb - 79f
12:30am  -   -  11 13 mph 1016.7mb - 79f
12:20am  -   -  11 13 mph 1016.9mb - 79f
12:10am  -   -  11 13 mph 1017mb - 79f
12:00am 3ft 6s 11 16 mph 1017.1mb 80f 79f
Tue 04/14 11:50pm  -   -  13 16 mph 1017.1mb - 79f
11:40pm  -   -  13 16 mph 1017.2mb - 79f
11:30pm  -   -  13 18 mph 1017.4mb - 79f
11:20pm  -   -  13 16 mph 1017.4mb - 79f
11:10pm  -   -  13 16 mph 1017.5mb - 79f
11:00pm 3.5ft 6s 16 18 mph 1017.5mb 80f 79f
10:50pm  -   -  16 18 mph 1017.5mb - 79f
10:40pm  -   -  16 20 mph 1017.5mb - 79f
10:30pm  -   -  18 20 mph 1017.5mb - 79f
10:20pm  -   -  18 20 mph 1017.5mb - 79f
10:10pm  -   -  16 20 mph 1017.5mb - 79f
10:00pm 3.5ft 6s 18 20 mph 1017.3mb 80f 79f
9:50pm  -   -  16 20 mph 1017.3mb - 79f
9:40pm  -   -  16 20 mph 1017.2mb - 79f
9:30pm  -   -  16 18 mph 1017.2mb - 79f
9:20pm  -   -  16 20 mph 1017.1mb - 79f
9:10pm  -   -  16 20 mph 1017mb - 80f
9:00pm 3.5ft 6s 16 20 mph 1016.9mb 80f 80f
8:50pm  -   -  16 20 mph 1016.9mb - 80f
8:40pm  -   -  18 20 mph 1016.8mb - 80f
8:30pm  -   -  18 20 mph 1016.8mb - 80f
8:20pm  -   -  18 20 mph 1016.7mb - 80f
8:10pm  -   -  18 22 mph 1016.7mb - 80f
8:00pm 3.5ft 6s 18 22 mph 1016.6mb 80f 80f
7:50pm  -   -  18 22 mph 1016.4mb - 80f
7:40pm  -   -  18 22 mph 1016.3mb - 80f
7:30pm  -   -  18 22 mph 1016.3mb - 80f
7:20pm  -   -  20 22 mph 1016.2mb - 80f
7:10pm  -   -  18 22 mph 1016.1mb - 80f
7:00pm 4ft 7s 18 22 mph 1016mb 80f 80f
6:50pm  -   -  18 22 mph 1015.8mb - 80f
6:40pm  -   -  20 22 mph 1015.8mb - 80f
6:30pm  -   -  18 22 mph 1015.8mb - 80f
6:20pm  -   -  18 22 mph 1015.6mb - 80f
6:10pm  -   -  18 22 mph 1015.7mb - 80f
6:00pm 4ft 6s 18 22 mph 1015.7mb 80f 80f
5:50pm  -   -  18 22 mph 1015.5mb - 80f
5:40pm  -   -  18 22 mph 1015.6mb - 80f
5:30pm  -   -  18 25 mph 1015.5mb - 80f
5:20pm  -   -  18 22 mph 1015.5mb - 80f
5:10pm  -   -  18 22 mph 1015.4mb - 80f
5:00pm 4ft 7s 20 25 mph 1015.4mb 80f 80f
4:50pm  -   -  18 22 mph 1015.5mb - 80f
4:40pm  -   -  18 20 mph 1015.5mb - 80f
4:30pm  -   -  18 22 mph 1015.4mb - 80f
4:20pm  -   -  18 22 mph 1015.4mb - 80f
4:10pm  -   -  18 22 mph 1015.5mb - 80f
4:00pm 4ft 7s 18 22 mph 1015.6mb 80f 80f
3:50pm  -   -  18 22 mph 1015.5mb - 80f
3:40pm  -   -  18 22 mph 1015.6mb - 80f
3:30pm  -   -  18 22 mph 1015.7mb - 80f
3:20pm  -   -  18 22 mph 1015.8mb - 80f
3:10pm  -   -  18 22 mph 1015.9mb - 80f
3:00pm 4.5ft 6s 18 22 mph 1016.1mb 80f 80f
2:50pm  -   -  20 25 mph 1016.1mb - 80f
2:40pm  -   -  20 22 mph 1016mb - 80f
2:30pm  -   -  20 25 mph 1016.1mb - 80f
2:20pm  -   -  20 25 mph 1016.3mb - 80f
2:10pm  -   -  20 25 mph 1016.5mb - 80f
2:00pm 4.5ft 5s 20 25 mph 1016.7mb 80f 80f
1:50pm  -   -  20 25 mph 1016.9mb - 80f
1:40pm  -   -  20 25 mph 1017mb - 80f
1:30pm  -   -  20 22 mph 1017.1mb - 80f
1:20pm  -   -  20 25 mph 1017.2mb - 80f
1:10pm  -   -  20 22 mph 1017.4mb - 80f
1:00pm 4.5ft 7s 20 25 mph 1017.5mb 80f 80f
12:50pm  -   -  20 25 mph 1017.6mb - 80f
12:40pm  -   -  20 25 mph 1017.8mb - 80f
12:30pm  -   -  20 25 mph 1018.1mb - 80f
12:20pm  -   -  20 25 mph 1018.1mb - 80f
12:10pm  -   -  20 25 mph 1018.4mb - 80f
12:00pm 4.5ft 6s 20 25 mph 1018.5mb 80f 80f